{"data":{"norad_id":58706,"intl_designator":"2024-002B","name":"STARLINK-11075 [DTC]","alt_names":[],"object_type":"PAYLOAD","status":"ACTIVE","operator":null,"country":"US","launch_date":"2024-01-03","launch_site_code":"AFWTR","launch_vehicle":null,"mission":null,"orbit_class":"UNKNOWN","rcs_meters":null,"size_class":null,"mass_kg":null,"dimensions":null,"purposes":["comms"],"wikipedia_slug":null,"has_3d_model":false,"image_url":null,"decayed_at":null,"tle_current":{"epoch":"2026-09-19T23:45:21.446784Z","epoch_age_seconds":193900,"freshness":"STALE","line1":"1 58706U 24002B   26262.98983156  .00091730  00000+0  48414-3 0  9994","line2":"2 58706  53.1454  33.2763 0002104 287.6925  72.3867 15.79912305156995","mean_motion":15.79912305,"eccentricity":0.0002104,"inclination_deg":53.1454,"raan_deg":33.2763,"arg_perigee_deg":287.6925,"mean_anomaly_deg":72.3867,"bstar":0.00048414,"rev_number":15699,"period_min":91.144299303372,"perigee_km":329.27734116221,"apogee_km":332.10041509173,"semimajor_km":6708.825878127,"source":"CELESTRAK","updated_at":"2026-09-21T09:00:33.946790Z"}}}